TimeCST,TemperatureF,Dew PointF,Humidity,Sea Level PressureIn,VisibilityMPH,Wind Direction,Wind SpeedMPH,Gust SpeedMPH,PrecipitationIn,Events,Conditions,WindDirDegrees,DateUTC
12:53 AM,28.9,19.0,67,29.99,10.0,NW,23.0,28.8,N/A,,Clear,310,2013-02-11 06:53:00
1:53 AM,28.0,19.0,69,30.03,10.0,WNW,15.0,-,N/A,,Clear,290,2013-02-11 07:53:00
2:53 AM,27.0,19.0,72,30.06,10.0,WNW,17.3,-,N/A,,Clear,300,2013-02-11 08:53:00
3:53 AM,26.1,18.0,71,30.08,10.0,WNW,16.1,-,N/A,,Clear,290,2013-02-11 09:53:00
4:53 AM,25.0,17.1,72,30.11,10.0,WNW,13.8,-,N/A,,Clear,290,2013-02-11 10:53:00
5:53 AM,24.1,16.0,71,30.12,10.0,NW,12.7,-,N/A,,Clear,310,2013-02-11 11:53:00
6:53 AM,23.0,16.0,74,30.14,10.0,NW,15.0,-,N/A,,Clear,310,2013-02-11 12:53:00
7:53 AM,21.9,16.0,78,30.17,10.0,WNW,12.7,-,N/A,,Clear,300,2013-02-11 13:53:00
8:53 AM,24.1,15.1,69,30.17,10.0,NW,19.6,-,N/A,,Clear,310,2013-02-11 14:53:00
9:53 AM,27.0,16.0,63,30.19,10.0,NNW,23.0,28.8,N/A,,Clear,330,2013-02-11 15:53:00
10:53 AM,30.0,16.0,56,30.20,10.0,NNW,20.7,26.5,N/A,,Clear,330,2013-02-11 16:53:00
11:53 AM,32.0,18.0,56,30.20,10.0,NW,17.3,-,N/A,,Clear,320,2013-02-11 17:53:00
12:53 PM,33.1,18.0,54,30.19,10.0,NW,12.7,23.0,N/A,,Clear,320,2013-02-11 18:53:00
1:53 PM,34.0,17.1,50,30.18,10.0,NW,12.7,-,N/A,,Clear,310,2013-02-11 19:53:00
2:53 PM,35.1,17.1,48,30.16,10.0,NW,11.5,-,N/A,,Clear,320,2013-02-11 20:53:00
3:53 PM,36.0,17.1,46,30.15,10.0,NW,12.7,-,N/A,,Clear,310,2013-02-11 21:53:00
4:53 PM,34.0,17.1,50,30.14,10.0,NW,9.2,-,N/A,,Clear,320,2013-02-11 22:53:00
5:53 PM,30.9,18.0,59,30.15,10.0,North,6.9,-,N/A,,Clear,350,2013-02-11 23:53:00
6:53 PM,27.0,19.0,72,30.17,10.0,North,3.5,-,N/A,,Clear,360,2013-02-12 00:53:00
7:53 PM,27.0,19.0,72,30.18,10.0,Calm,Calm,-,N/A,,Mostly Cloudy,0,2013-02-12 01:53:00
8:53 PM,26.1,19.0,75,30.19,10.0,Calm,Calm,-,N/A,,Clear,0,2013-02-12 02:53:00
9:53 PM,25.0,19.0,78,30.20,10.0,Calm,Calm,-,N/A,,Clear,0,2013-02-12 03:53:00
10:53 PM,24.1,18.0,77,30.19,10.0,SW,3.5,-,N/A,,Clear,220,2013-02-12 04:53:00
11:53 PM,24.1,18.0,77,30.18,10.0,SW,3.5,-,N/A,,Clear,220,2013-02-12 05:53:00